| time (UTC) | temp F | wind direction | speed knots | gust knots | rain 1hr in | rain 24hr in | rain mn in | humidity % | barometer mb |
| 20260510090048 | 65 | 68 | 0.9 | 7.8 | 0.00 | 0.00 | 0.00 | 56 | 1007.4 |
| 20260510084608 | 64 | 57 | 0.0 | 6.1 | 0.00 | 0.00 | 0.00 | 57 | 1007.4 |
| 20260510083051 | 64 | 83 | 0.0 | 3.5 | 0.00 | 0.00 | 0.00 | 60 | 1007.5 |
| 20260510081555 | 62 | 95 | 0.9 | 7.0 | 0.00 | 0.00 | 0.00 | 62 | 1007.6 |
| 20260510080047 | 61 | 60 | 0.9 | 7.0 | 0.00 | 0.00 | 0.00 | 61 | 1007.6 |
| 20260510074543 | 60 | 0 | 0.0 | 4.3 | 0.00 | 0.00 | 0.00 | 62 | 1007.9 |
| 20260510073039 | 59 | 0 | 0.9 | 6.1 | 0.00 | 0.00 | 0.00 | 64 | 1007.8 |
| 20260510071546 | 58 | 0 | 1.7 | 9.6 | 0.00 | 0.00 | 0.00 | 66 | 1007.8 |
| 20260510070053 | 57 | 360 | 0.9 | 7.0 | 0.00 | 0.00 | 0.00 | 68 | 1007.9 |
| 20260510064548 | 56 | 0 | 0.9 | 5.2 | 0.00 | 0.00 | 0.00 | 67 | 1008.1 |
| 20260510063047 | 54 | 360 | 0.0 | 3.5 | 0.00 | 0.00 | 0.00 | 71 | 1008.2 |
| 20260510061542 | 53 | 0 | 0.0 | 4.3 | 0.00 | 0.00 | 0.00 | 72 | 1008.2 |
| 20260510060049 | 53 | 0 | 0.0 | 2.6 | 0.00 | 0.00 | 0.00 | 72 | 1008.2 |
| 20260510054550 | 52 | 0 | 0.0 | 1.7 | 0.00 | 0.00 | 0.00 | 73 | 1008.4 |
| 20260510053049 | 50 | 0 | 0.0 | 1.7 | 0.00 | 0.00 | 0.00 | 78 | 1008.6 |
| 20260510051549 | 46 | 0 | 0.0 | 0.0 | 0.00 | 0.00 | 0.00 | 80 | 1008.7 |
| 20260510050040 | 44 | 0 | 0.0 | 0.0 | 0.00 | 0.00 | 0.00 | 81 | 1008.6 |
| 20260510044546 | 42 | 0 | 0.0 | 0.0 | 0.00 | 0.00 | 0.00 | 79 | 1008.6 |
| 20260510043048 | 42 | 0 | 0.0 | 0.0 | 0.00 | 0.00 | 0.00 | 78 | 1008.9 |
| 20260510041542 | 42 | 0 | 0.0 | 0.0 | 0.00 | 0.00 | 0.00 | 77 | 1009.0 |
| 20260510040047 | 43 | 0 | 0.0 | 0.0 | 0.00 | 0.00 | 0.00 | 77 | 1009.0 |
| 20260510034548 | 43 | 0 | 0.0 | 0.0 | 0.00 | 0.00 | 0.00 | 75 | 1008.9 |
| 20260510033048 | 43 | 0 | 0.0 | 0.0 | 0.00 | 0.00 | 0.00 | 75 | 1009.0 |
| 20260510031544 | 44 | 0 | 0.0 | 0.0 | 0.00 | 0.00 | 0.00 | 75 | 1009.2 |
| 20260510024548 | 45 | 0 | 0.0 | 0.0 | 0.00 | 0.00 | 0.00 | 75 | 1009.3 |
| 20260510023048 | 45 | 0 | 0.0 | 0.0 | 0.00 | 0.00 | 0.00 | 75 | 1009.4 |
| 20260510021547 | 45 | 0 | 0.0 | 0.0 | 0.00 | 0.00 | 0.00 | 74 | 1009.3 |
| 20260510020049 | 45 | 0 | 0.0 | 0.0 | 0.00 | 0.00 | 0.00 | 74 | 1009.5 |
| 20260510014550 | 46 | 0 | 0.0 | 0.0 | 0.00 | 0.00 | 0.00 | 74 | 1009.7 |
| 20260510013048 | 46 | 0 | 0.0 | 0.0 | 0.00 | 0.00 | 0.00 | 73 | 1009.7 |
| 20260510011548 | 46 | 0 | 0.0 | 0.0 | 0.00 | 0.00 | 0.00 | 73 | 1009.8 |
| 20260510010049 | 46 | 0 | 0.0 | 0.0 | 0.00 | 0.00 | 0.00 | 73 | 1009.8 |
| 20260510004548 | 47 | 0 | 0.0 | 0.0 | 0.00 | 0.00 | 0.00 | 71 | 1009.9 |
| 20260510003042 | 47 | 0 | 0.0 | 0.0 | 0.00 | 0.00 | 0.00 | 69 | 1009.9 |
| 20260510001546 | 48 | 0 | 0.0 | 0.0 | 0.00 | 0.00 | 0.00 | 69 | 1010.1 |
| 20260510000103 | 48 | 0 | 0.0 | 0.0 | 0.00 | 0.00 | 0.00 | 68 | 1010.1 |
| 20260509234556 | 49 | 0 | 0.0 | 0.0 | 0.00 | 0.00 | 0.00 | 68 | 1010.3 |
| 20260509233050 | 50 | 0 | 0.0 | 0.0 | 0.00 | 0.00 | 0.00 | 67 | 1010.5 |
| 20260509231544 | 51 | 0 | 0.0 | 0.0 | 0.00 | 0.00 | 0.00 | 67 | 1010.6 |
| 20260509230044 | 51 | 0 | 0.0 | 0.0 | 0.00 | 0.00 | 0.00 | 66 | 1010.8 |
| 20260509224542 | 52 | 0 | 0.0 | 0.0 | 0.00 | 0.00 | 0.00 | 64 | 1010.8 |
| 20260509223044 | 53 | 0 | 0.0 | 0.0 | 0.00 | 0.00 | 0.00 | 63 | 1010.9 |
| 20260509221545 | 54 | 0 | 0.0 | 0.0 | 0.00 | 0.00 | 0.00 | 62 | 1010.8 |
| 20260509220043 | 55 | 0 | 0.0 | 0.0 | 0.00 | 0.00 | 0.00 | 61 | 1010.8 |
| 20260509214540 | 55 | 0 | 0.0 | 1.7 | 0.00 | 0.00 | 0.00 | 61 | 1010.9 |
| 20260509213049 | 56 | 0 | 0.0 | 2.6 | 0.00 | 0.00 | 0.00 | 61 | 1010.9 |
| 20260509211544 | 56 | 0 | 0.0 | 2.6 | 0.00 | 0.00 | 0.00 | 61 | 1011.0 |
| 20260509210057 | 57 | 96 | 0.0 | 5.2 | 0.00 | 0.00 | 0.00 | 60 | 1011.1 |
| 20260509204554 | 57 | 90 | 0.0 | 3.5 | 0.00 | 0.00 | 0.00 | 60 | 1011.1 |
| 20260509203047 | 58 | 0 | 0.9 | 3.5 | 0.00 | 0.00 | 0.00 | 60 | 1011.2 |
| 20260509201605 | 58 | 0 | 0.9 | 4.3 | 0.00 | 0.00 | 0.00 | 59 | 1011.3 |
| 20260509200104 | 59 | 0 | 0.0 | 5.2 | 0.00 | 0.00 | 0.00 | 59 | 1011.4 |
| 20260509194546 | 59 | 91 | 0.0 | 0.9 | 0.00 | 0.00 | 0.00 | 57 | 1011.3 |
| 20260509193046 | 60 | 0 | 0.0 | 0.0 | 0.00 | 0.00 | 0.00 | 56 | 1011.2 |
| 20260509191540 | 61 | 0 | 0.0 | 2.6 | 0.00 | 0.00 | 0.00 | 55 | 1011.0 |
| 20260509190048 | 62 | 0 | 0.0 | 0.0 | 0.00 | 0.00 | 0.00 | 53 | 1011.0 |
| 20260509184556 | 63 | 0 | 0.0 | 0.0 | 0.00 | 0.00 | 0.00 | 52 | 1011.1 |
| 20260509183041 | 64 | 0 | 0.0 | 1.7 | 0.00 | 0.00 | 0.00 | 51 | 1010.9 |
| 20260509181548 | 64 | 0 | 0.0 | 6.1 | 0.00 | 0.00 | 0.00 | 50 | 1010.9 |
| 20260509180043 | 65 | 0 | 0.0 | 7.8 | 0.00 | 0.00 | 0.00 | 50 | 1010.8 |
| 20260509174549 | 65 | 0 | 0.0 | 4.3 | 0.00 | 0.00 | 0.00 | 49 | 1010.9 |
| 20260509173051 | 66 | 94 | 0.0 | 6.1 | 0.00 | 0.00 | 0.00 | 47 | 1010.8 |
| 20260509171542 | 67 | 61 | 0.9 | 9.6 | 0.00 | 0.00 | 0.00 | 46 | 1010.9 |
| 20260509170043 | 68 | 67 | 0.9 | 8.7 | 0.00 | 0.00 | 0.00 | 45 | 1010.8 |
| 20260509164545 | 68 | 360 | 1.7 | 9.6 | 0.00 | 0.00 | 0.00 | 44 | 1010.8 |
| 20260509163051 | 67 | 80 | 1.7 | 7.0 | 0.00 | 0.00 | 0.00 | 45 | 1010.9 |
| 20260509161549 | 68 | 91 | 0.9 | 5.2 | 0.00 | 0.00 | 0.00 | 44 | 1011.1 |
| 20260509160049 | 68 | 0 | 0.0 | 4.3 | 0.00 | 0.00 | 0.00 | 44 | 1011.1 |
| 20260509154542 | 70 | 0 | 0.0 | 1.7 | 0.00 | 0.00 | 0.00 | 41 | 1011.2 |
| 20260509153046 | 71 | 0 | 0.0 | 7.0 | 0.00 | 0.00 | 0.00 | 41 | 1011.4 |
| 20260509151555 | 72 | 57 | 0.9 | 3.5 | 0.00 | 0.00 | 0.00 | 40 | 1011.4 |
| 20260509150044 | 70 | 0 | 0.9 | 5.2 | 0.00 | 0.00 | 0.00 | 43 | 1011.5 |
| 20260509144600 | 71 | 71 | 0.9 | 5.2 | 0.00 | 0.00 | 0.00 | 40 | 1011.6 |
| 20260509143113 | 71 | 0 | 0.0 | 7.8 | 0.00 | 0.00 | 0.00 | 39 | 1011.7 |
| 20260509141542 | 72 | 5 | 0.0 | 4.3 | 0.00 | 0.00 | 0.00 | 40 | 1011.7 |
| 20260509140057 | 69 | 360 | 0.0 | 0.9 | 0.00 | 0.00 | 0.00 | 43 | 1011.8 |
| 20260509134600 | 69 | 0 | 0.0 | 7.0 | 0.00 | 0.00 | 0.00 | 44 | 1012.0 |
| 20260509133047 | 71 | 0 | 0.9 | 7.0 | 0.00 | 0.00 | 0.00 | 42 | 1012.1 |
| 20260509131541 | 70 | 32 | 0.0 | 7.0 | 0.00 | 0.00 | 0.00 | 43 | 1012.2 |
| 20260509130056 | 70 | 0 | 0.0 | 7.8 | 0.00 | 0.00 | 0.00 | 42 | 1012.4 |
| 20260509124549 | 71 | 352 | 3.5 | 8.7 | 0.00 | 0.00 | 0.00 | 42 | 1012.5 |
| 20260509123100 | 70 | 76 | 0.0 | 8.7 | 0.00 | 0.00 | 0.00 | 42 | 1012.6 |
| 20260509121607 | 72 | 83 | 0.0 | 7.0 | 0.00 | 0.00 | 0.00 | 42 | 1012.7 |
| 20260509120049 | 71 | 0 | 0.9 | 3.5 | 0.00 | 0.00 | 0.00 | 45 | 1012.8 |
| 20260509114545 | 70 | 49 | 0.0 | 4.3 | 0.00 | 0.00 | 0.00 | 45 | 1012.9 |
| 20260509113056 | 70 | 0 | 0.0 | 7.8 | 0.00 | 0.00 | 0.00 | 44 | 1013.0 |
| 20260509111602 | 71 | 84 | 0.9 | 8.7 | 0.00 | 0.00 | 0.00 | 46 | 1013.2 |
| 20260509110049 | 70 | 29 | 0.9 | 7.0 | 0.00 | 0.00 | 0.00 | 47 | 1013.2 |
| 20260509104552 | 68 | 0 | 0.9 | 6.1 | 0.00 | 0.00 | 0.00 | 47 | 1013.4 |
| 20260509103101 | 70 | 163 | 0.0 | 7.0 | 0.00 | 0.00 | 0.00 | 46 | 1013.5 |
| 20260509101616 | 69 | 305 | 0.0 | 6.1 | 0.00 | 0.00 | 0.00 | 44 | 1013.8 |
| 20260509100047 | 68 | 0 | 0.0 | 2.6 | 0.00 | 0.00 | 0.00 | 48 | 1013.9 |
| 20260509094543 | 68 | 37 | 0.9 | 5.2 | 0.00 | 0.00 | 0.00 | 47 | 1014.0 |
| 20260509093044 | 67 | 68 | 1.7 | 8.7 | 0.00 | 0.00 | 0.00 | 49 | 1013.9 |
| 20260509091545 | 66 | 137 | 0.0 | 4.3 | 0.00 | 0.00 | 0.00 | 51 | 1014.0 |